sat.trackr.live / text

‹ back to catalog

ZHUHAI-1 OHS-02

NORAD 43441 · 2018-040C

PAYLOAD ACTIVE UNKNOWN

§ Identity

Operator
Country
PRC
Launch date
2018-04-26
Launch site
JSC
Launch vehicle
Mass (kg)
RCS (m²)

External: N2YO · Heavens-Above · Gunter

§ Orbital elements

Epoch: 2026-09-20T04:50:34.789920Z

Period
94.30 min
Inclination
97.0347°
Eccentricity
0.0007239
Mean motion
15.27005437 rev/d
Perigee alt
479.8 km
Apogee alt
489.7 km
Semi-major
6,862.9 km
B*
1.5641e-4
RAAN
281.8879°
Arg perigee
247.4679°
Mean anomaly
112.5795°
Rev number
12,877

§ Raw data

ZHUHAI-1 OHS-021 43441U 18040C   26263.20179155  .00004080  00000+0  15641-3 0  99992 43441  97.0347 281.8879 0007239 247.4679 112.5795 15.27005437128770

JSON: /api/v1/satellites/43441 · /tle

For live sub-satellite position, see the globe view (requires WebGL).

§ Visibility from observer

Set your observer location to see the next 7 days of passes ≥ 10°. The values pass through the URL so the page stays shareable.

No JS? Fill the form by hand. The geolocation button needs JavaScript.

§ Radio — SatNOGS DB

ModeDescriptionDownlinkUplink
FSK Downlink 401.560 MHz
BPSK Telemetry 2.254 GHz

2 transmitters · refreshed weekly from db.satnogs.org